• In Hungary
  • List of Countries
  • For 7 days
  • Water Temperature
  • Satellite Maps
  • Weather Map
  • News
  • Weather Widgets
  • user-avatar
    Login

    Hourly Weather Potochok

    Today, 24 November, Friday

    Time Temperature Precipitation Wind Pressure Humidity
    00:00 +6°C° 0 mm 1 mps 738 mmHg 92%
    01:00 +6°C° 0 mm 1 mps 738 mmHg 92%
    02:00 +6°C° 0 mm 1 mps 738 mmHg 93%
    03:00 +6°C° 0 mm 1 mps 738 mmHg 93%
    04:00 +6°C° 0 mm 1 mps 738 mmHg 93%
    05:00 +6°C° 0 mm 1 mps 738 mmHg 93%
    06:00 +6°C° 0 mm 1 mps 738 mmHg 93%
    07:00 +7°C° 0 mm 1 mps 738 mmHg 93%
    08:00 +7°C° 0 mm 1 mps 738 mmHg 93%
    09:00 +7°C° 0 mm 1 mps 738 mmHg 91%
    10:00 +8°C° 0 mm 1 mps 738 mmHg 88%
    11:00 +9°C° 0 mm 1 mps 738 mmHg 86%
    12:00 +9°C° 0 mm 1 mps 738 mmHg 85%
    13:00 +10°C° 0 mm 1 mps 738 mmHg 83%
    14:00 +10°C° 0 mm 1 mps 737 mmHg 82%
    15:00 +9°C° 0 mm 1 mps 738 mmHg 85%
    16:00 +9°C° 0 mm 1 mps 738 mmHg 88%
    17:00 +8°C° 0 mm 1 mps 738 mmHg 91%
    18:00 +8°C° 0 mm 1 mps 738 mmHg 91%
    19:00 +8°C° 0 mm 1 mps 738 mmHg 91%
    20:00 +7°C° 0 mm 1 mps 738 mmHg 91%
    21:00 +7°C° 0 mm 1 mps 738 mmHg 91%
    22:00 +7°C° 0 mm 1 mps 738 mmHg 91%
    23:00 +7°C° 0 mm 1 mps 739 mmHg 91%

    Tomorrow, 25 November, Saturday

    Time Temperature Precipitation Wind Pressure Humidity
    00:00 +7°C° 0 mm 1 mps 738 mmHg 92%
    01:00 +6°C° 0 mm 1 mps 738 mmHg 92%
    02:00 +6°C° 0 mm 1 mps 738 mmHg 92%
    03:00 +6°C° 0 mm 1 mps 738 mmHg 92%
    04:00 +6°C° 0 mm 1 mps 738 mmHg 92%
    05:00 +6°C° 0 mm 1 mps 738 mmHg 92%
    06:00 +6°C° 0 mm 1 mps 737 mmHg 92%
    07:00 +6°C° 0 mm 1 mps 737 mmHg 92%
    08:00 +6°C° 0 mm 1 mps 737 mmHg 92%
    09:00 +6°C° 0 mm 2 mps 737 mmHg 88%
    10:00 +7°C° 0 mm 2 mps 737 mmHg 84%
    11:00 +8°C° 0 mm 2 mps 736 mmHg 80%
    12:00 +9°C° 0 mm 2 mps 736 mmHg 78%
    13:00 +9°C° 0 mm 2 mps 735 mmHg 76%
    14:00 +10°C° 0 mm 2 mps 735 mmHg 75%
    15:00 +9°C° 0 mm 2 mps 734 mmHg 79%
    16:00 +8°C° 0 mm 2 mps 734 mmHg 83%
    17:00 +7°C° 0 mm 2 mps 734 mmHg 87%
    18:00 +6°C° 0 mm 2 mps 733 mmHg 87%
    19:00 +6°C° 0 mm 2 mps 733 mmHg 86%
    20:00 +6°C° 0 mm 2 mps 733 mmHg 86%
    21:00 +6°C° 0 mm 2 mps 733 mmHg 85%
    22:00 +6°C° 0 mm 2 mps 733 mmHg 84%
    23:00 +6°C° 0 mm 2 mps 733 mmHg 84%

    Day after tomorrow, 26 November, Sunday

    Time Temperature Precipitation Wind Pressure Humidity
    00:00 +6°C° 0 mm 2 mps 733 mmHg 83%
    01:00 +6°C° 0 mm 2 mps 733 mmHg 81%
    02:00 +6°C° 0 mm 2 mps 732 mmHg 80%
    03:00 +6°C° 0 mm 2 mps 732 mmHg 80%
    04:00 +6°C° 0 mm 2 mps 732 mmHg 79%
    05:00 +6°C° 0 mm 2 mps 732 mmHg 79%
    06:00 +6°C° 0 mm 2 mps 732 mmHg 79%
    07:00 +6°C° 0 mm 2 mps 732 mmHg 79%
    08:00 +6°C° 0 mm 2 mps 732 mmHg 79%
    09:00 +7°C° 0.2 mm 2 mps 732 mmHg 79%
    10:00 +7°C° 0.2 mm 2 mps 732 mmHg 78%
    11:00 +9°C° 0.2 mm 1 mps 732 mmHg 78%
    12:00 +8°C° 0.5 mm 1 mps 732 mmHg 80%
    13:00 +8°C° 0.5 mm 1 mps 732 mmHg 83%
    14:00 +7°C° 0.5 mm 0 mps 732 mmHg 86%
    15:00 +7°C° 0.4 mm 0 mps 732 mmHg 87%
    16:00 +7°C° 0.4 mm 1 mps 733 mmHg 89%
    17:00 +7°C° 0.4 mm 1 mps 733 mmHg 90%
    18:00 +7°C° 0.3 mm 1 mps 733 mmHg 90%
    19:00 +7°C° 0.3 mm 1 mps 733 mmHg 90%
    20:00 +6°C° 0.3 mm 2 mps 733 mmHg 90%
    21:00 +6°C° 0.5 mm 2 mps 734 mmHg 89%
    22:00 +6°C° 0.5 mm 2 mps 734 mmHg 88%
    23:00 +4°C° 0.5 mm 3 mps 734 mmHg 87%

    27 November, Monday

    Time Temperature Precipitation Wind Pressure Humidity
    00:00 +4°C° 0.5 mm 3 mps 735 mmHg 86%
    01:00 +4°C° 0.5 mm 3 mps 735 mmHg 85%
    02:00 +4°C° 0.5 mm 4 mps 735 mmHg 83%
    03:00 +3°C° 0.2 mm 4 mps 735 mmHg 82%
    04:00 +3°C° 0.2 mm 4 mps 735 mmHg 81%
    05:00 +3°C° 0.2 mm 4 mps 736 mmHg 80%
    06:00 +3°C° 0.1 mm 4 mps 736 mmHg 80%
    07:00 +1°C° 0.1 mm 4 mps 736 mmHg 79%
    08:00 +1°C° 0.1 mm 4 mps 737 mmHg 78%
    09:00 +1°C° 0.1 mm 4 mps 737 mmHg 76%
    10:00 +1°C° 0.1 mm 4 mps 737 mmHg 74%
    11:00 +3°C° 0.1 mm 4 mps 738 mmHg 72%
    12:00 +3°C° 0.1 mm 4 mps 738 mmHg 71%
    13:00 +3°C° 0.1 mm 4 mps 738 mmHg 69%
    14:00 +3°C° 0.1 mm 4 mps 738 mmHg 68%
    15:00 +2°C° 0 mm 3 mps 738 mmHg 71%
    16:00 +2°C° 0 mm 3 mps 738 mmHg 74%
    17:00 +1°C° 0 mm 3 mps 738 mmHg 76%
    18:00 +1°C° 0 mm 3 mps 738 mmHg 77%
    19:00 +1°C° 0 mm 3 mps 738 mmHg 78%
    20:00 +1°C° 0 mm 3 mps 738 mmHg 79%
    21:00 +1°C° 0 mm 3 mps 738 mmHg 79%
    22:00 +1°C° 0 mm 3 mps 738 mmHg 79%
    23:00 +1°C° 0 mm 3 mps 738 mmHg 80%

    28 November, Tuesday

    Time Temperature Precipitation Wind Pressure Humidity
    00:00 +1°C° 0.1 mm 2 mps 738 mmHg 80%
    01:00 +1°C° 0.1 mm 2 mps 738 mmHg 81%
    02:00 +1°C° 0.1 mm 2 mps 738 mmHg 81%
    03:00 +1°C° 0.1 mm 2 mps 738 mmHg 82%
    04:00 +1°C° 0.1 mm 2 mps 737 mmHg 82%
    05:00 +1°C° 0.1 mm 2 mps 737 mmHg 82%
    06:00 +1°C° 0.1 mm 2 mps 737 mmHg 83%
    07:00 +1°C° 0.1 mm 2 mps 737 mmHg 83%
    08:00 +1°C° 0.1 mm 2 mps 737 mmHg 83%
    09:00 +3°C° 0.2 mm 1 mps 737 mmHg 82%
    10:00 +3°C° 0.2 mm 1 mps 737 mmHg 80%
    11:00 +4°C° 0.2 mm 1 mps 737 mmHg 78%
    12:00 +4°C° 0.1 mm 1 mps 737 mmHg 77%
    13:00 +5°C° 0.1 mm 1 mps 736 mmHg 76%
    14:00 +5°C° 0.1 mm 1 mps 736 mmHg 75%
    15:00 +5°C° 0 mm 1 mps 736 mmHg 79%
    16:00 +4°C° 0 mm 1 mps 736 mmHg 83%
    17:00 +3°C° 0 mm 1 mps 736 mmHg 88%
    18:00 +2°C° 0 mm 0 mps 736 mmHg 89%
    19:00 +2°C° 0 mm 0 mps 736 mmHg 90%
    20:00 +1°C° 0 mm 0 mps 736 mmHg 91%
    21:00 +2°C° 0 mm 1 mps 736 mmHg 91%
    22:00 +2°C° 0 mm 1 mps 736 mmHg 91%
    23:00 +2°C° 0 mm 1 mps 736 mmHg 92%

    29 November, Wednesday

    Time Temperature Precipitation Wind Pressure Humidity
    00:00 +2°C° 0 mm 1 mps 736 mmHg 93%
    01:00 +2°C° 0 mm 1 mps 736 mmHg 93%
    02:00 +2°C° 0 mm 1 mps 735 mmHg 94%
    03:00 +2°C° 0 mm 1 mps 735 mmHg 94%
    04:00 +2°C° 0 mm 1 mps 735 mmHg 94%
    05:00 +2°C° 0 mm 1 mps 735 mmHg 94%
    06:00 +2°C° 0 mm 1 mps 735 mmHg 94%
    07:00 +2°C° 0 mm 1 mps 735 mmHg 94%
    08:00 +2°C° 0 mm 1 mps 735 mmHg 94%
    09:00 +3°C° 0 mm 1 mps 735 mmHg 91%
    10:00 +3°C° 0 mm 1 mps 735 mmHg 87%
    11:00 +4°C° 0 mm 1 mps 735 mmHg 84%
    12:00 +5°C° 0 mm 1 mps 734 mmHg 82%
    13:00 +5°C° 0 mm 1 mps 734 mmHg 81%
    14:00 +5°C° 0 mm 1 mps 734 mmHg 80%
    15:00 +5°C° 0 mm 1 mps 734 mmHg 84%
    16:00 +4°C° 0 mm 1 mps 734 mmHg 87%
    17:00 +3°C° 0 mm 1 mps 734 mmHg 91%
    18:00 +3°C° 0 mm 1 mps 734 mmHg 92%
    19:00 +2°C° 0 mm 2 mps 734 mmHg 93%
    20:00 +2°C° 0 mm 2 mps 734 mmHg 93%
    21:00 +2°C° 0 mm 2 mps 734 mmHg 93%
    22:00 +2°C° 0 mm 2 mps 733 mmHg 92%
    23:00 +1°C° 0 mm 2 mps 733 mmHg 92%
    Show more